Date String (YYYY-MM-DD hh:mm:ss) UTC,Instrument flags,Ambient pressure (hPa),Sample flow (lpm),Bypass flow (lpm),Sample temperature (°C),Ambient temperature (°C),ASC tube jacket temperature (°C),LED temperature (°C),Box temperature (°C),Sample RH (%),Span deviation,Mass concentration (μg/m³),Mass concentration (μg/m³),Mass concentration (μg/m³)
DateTimeUTC,F1_M11,P_M11,Q1_M11,Q2_M11,T1_M11,T2_M11,T3_M11,T4_M11,T5_M11,U1_M11,ZSPAN_M11,X0_M11,X2_M11,X1_M11
2021-12-14 23:00:00,,0816.8,5.00,0.00,29.5,28.7,00.0,38.3,31.3,06.7,0007.9,0032.79,0008.19,0005.87
2021-12-14 23:01:00,,0817.0,5.00,0.00,29.5,28.7,00.0,38.3,31.3,06.7,0009.7,0032.77,0008.29,0005.87
2021-12-14 23:02:00,,0816.8,5.00,0.00,29.5,28.7,00.0,38.3,31.3,06.7,0012.3,0032.54,0008.33,0005.88
2021-12-14 23:03:00,,0816.8,5.00,0.00,29.5,28.7,00.0,38.4,31.3,06.7,0010.5,0033.42,0008.38,0005.91
2021-12-14 23:04:00,,0816.8,5.01,0.00,29.5,28.8,00.0,38.4,31.3,06.7,0007.5,0034.34,0008.45,0005.90
2021-12-14 23:05:00,,0816.8,4.99,0.00,29.5,28.8,00.0,38.4,31.3,06.7,-008.6,0038.31,0008.59,0005.90
2021-12-14 23:06:00,,0816.8,5.00,0.00,29.5,28.8,00.0,38.4,31.3,06.7,-015.5,0040.05,0008.79,0005.91
2021-12-14 23:07:00,,0816.9,5.01,0.00,29.6,28.8,00.0,38.4,31.3,06.7,-009.0,0041.48,0008.98,0005.91
2021-12-14 23:08:00,,0816.8,4.98,0.00,29.6,28.8,00.0,38.4,31.4,06.7,0006.8,0042.09,0009.15,0005.90
2021-12-14 23:09:00,,0816.9,5.01,0.00,29.6,28.8,00.0,38.4,31.4,06.6,0006.7,0045.11,0009.25,0005.88
2021-12-14 23:10:00,,0816.9,4.99,0.00,29.6,28.8,00.0,38.4,31.3,06.6,0006.9,0047.61,0009.34,0005.89
2021-12-14 23:11:00,,0816.9,4.99,0.00,29.6,28.8,00.0,38.4,31.3,06.6,0005.4,0048.16,0009.36,0005.88
2021-12-14 23:12:00,,0816.8,5.02,0.00,29.6,28.8,00.0,38.4,31.4,06.6,0005.0,0049.45,0009.34,0005.90
2021-12-14 23:13:00,,0816.8,5.00,0.00,29.6,28.8,00.0,38.4,31.4,06.6,0004.8,0051.42,0009.40,0005.90
2021-12-14 23:14:00,,0816.9,4.99,0.00,29.6,28.8,00.0,38.4,31.4,06.6,0003.3,0052.81,0009.43,0005.90
2021-12-14 23:15:00,,0817.4,5.00,0.00,29.6,28.8,00.0,38.5,31.4,06.6,0001.6,0052.46,0009.42,0005.91
2021-12-14 23:16:00,,0817.2,5.01,0.00,29.6,28.8,00.0,38.5,31.4,06.6,-000.9,0049.25,0009.39,0005.90
2021-12-14 23:17:00,,0817.4,5.00,0.00,29.6,28.8,00.0,38.5,31.4,06.6,-001.2,0047.47,0009.25,0005.90
2021-12-14 23:18:00,,0817.0,5.01,0.00,29.6,28.8,00.0,38.5,31.4,06.6,-000.3,0045.84,0009.23,0005.91
2021-12-14 23:19:00,,0817.1,5.00,0.00,29.6,28.8,00.0,38.5,31.4,06.6,0000.3,0044.38,0009.20,0005.91
2021-12-14 23:20:00,,0817.1,5.00,0.00,29.7,28.9,00.0,38.5,31.4,06.6,-000.8,0042.77,0009.22,0005.92
2021-12-14 23:21:00,,0816.9,5.00,0.00,29.7,28.9,00.0,38.5,31.4,06.6,-001.0,0041.92,0009.25,0005.93
2021-12-14 23:22:00,,0817.2,5.01,0.00,29.7,28.9,00.0,38.5,31.4,06.6,-001.5,0042.89,0009.35,0005.94
2021-12-14 23:23:00,,0816.9,5.00,0.00,29.7,28.9,00.0,38.5,31.4,06.6,-001.6,0043.66,0009.53,0005.93
2021-12-14 23:24:00,,0816.9,5.00,0.00,29.7,28.9,00.0,38.5,31.4,06.6,-000.5,0042.20,0009.54,0005.93
2021-12-14 23:25:00,,0816.9,5.00,0.00,29.7,28.9,00.0,38.5,31.4,06.6,0000.6,0039.00,0009.54,0005.93
2021-12-14 23:26:00,,0817.1,5.01,0.00,29.7,28.8,00.0,38.5,31.4,06.6,-000.6,0038.57,0009.54,0005.96
2021-12-14 23:27:00,,0816.9,5.00,0.00,29.7,28.8,00.0,38.5,31.4,06.6,-000.6,0040.04,0009.50,0005.98
2021-12-14 23:28:00,,0816.9,5.00,0.00,29.7,28.8,00.0,38.5,31.4,06.6,-000.9,0039.82,0009.59,0005.99
2021-12-14 23:29:00,,0817.0,5.00,0.00,29.7,28.8,00.0,38.5,31.4,06.6,0000.8,0039.21,0009.58,0005.97
2021-12-14 23:30:00,,0817.0,4.99,0.00,29.6,28.8,00.0,38.5,31.3,06.6,-001.8,0041.30,0009.53,0005.96
2021-12-14 23:31:00,,0817.0,4.99,0.00,29.6,28.8,00.0,38.5,31.3,06.6,-001.3,0041.98,0009.46,0005.95
2021-12-14 23:32:00,,0817.0,5.01,0.00,29.6,28.8,00.0,38.5,31.3,06.6,-000.3,0041.91,0009.43,0005.94
2021-12-14 23:33:00,,0817.0,5.01,0.00,29.6,28.8,00.0,38.5,31.3,06.6,0001.8,0039.76,0009.35,0005.92
2021-12-14 23:34:00,,0817.0,4.98,0.00,29.6,28.7,00.0,38.5,31.3,06.6,0002.4,0037.21,0009.21,0005.89
2021-12-14 23:35:00,,0817.0,5.01,0.00,29.6,28.7,00.0,38.5,31.2,06.6,0001.0,0035.65,0009.21,0005.86
2021-12-14 23:36:00,,0817.0,4.99,0.00,29.5,28.7,00.0,38.5,31.2,06.6,0000.2,0036.36,0009.26,0005.83
2021-12-14 23:37:00,,0816.9,5.01,0.00,29.5,28.7,00.0,38.5,31.2,06.6,0001.7,0036.92,0009.33,0005.76
2021-12-14 23:38:00,,0817.0,5.02,0.00,29.5,28.6,00.0,38.5,31.2,06.6,0003.2,0034.31,0009.39,0005.70
2021-12-14 23:39:00,,0817.0,5.01,0.00,29.5,28.6,00.0,38.5,31.2,06.7,0004.4,0035.13,0009.48,0005.67
2021-12-14 23:40:00,,0816.9,4.99,0.00,29.5,28.6,00.0,38.5,31.2,06.7,0004.2,0037.95,0009.50,0005.64
2021-12-14 23:41:00,,0817.0,5.00,0.00,29.5,28.6,00.0,38.5,31.2,06.7,0005.0,0037.34,0009.53,0005.62
2021-12-14 23:42:00,,0817.0,5.00,0.00,29.5,28.6,00.0,38.5,31.2,06.7,0005.7,0035.50,0009.53,0005.59
2021-12-14 23:43:00,,0817.0,5.00,0.00,29.5,28.6,00.0,38.5,31.2,06.7,0005.8,0035.70,0009.51,0005.57
2021-12-14 23:44:00,,0817.0,5.00,0.00,29.5,28.6,00.0,38.5,31.2,06.7,0003.9,0036.28,0009.64,0005.57
2021-12-14 23:45:00,,0817.0,5.00,0.00,29.5,28.6,00.0,38.5,31.2,06.7,0003.3,0037.48,0009.69,0005.58
2021-12-14 23:46:00,,0816.9,4.99,0.00,29.5,28.6,00.0,38.5,31.2,06.7,0002.2,0038.70,0009.70,0005.57
2021-12-14 23:47:00,,0816.9,5.00,0.00,29.5,28.6,00.0,38.5,31.2,06.7,0001.3,0040.76,0009.75,0005.59
2021-12-14 23:48:00,,0817.0,4.99,0.00,29.5,28.6,00.0,38.5,31.2,06.7,0001.9,0041.23,0009.72,0005.63
2021-12-14 23:49:00,,0817.0,5.02,0.00,29.5,28.6,00.0,38.5,31.2,06.7,0000.9,0043.82,0009.73,0005.66
2021-12-14 23:50:00,,0817.0,5.00,0.00,29.5,28.6,00.0,38.5,31.2,06.7,0000.2,0042.46,0009.65,0005.67
2021-12-14 23:51:00,,0817.0,5.00,0.00,29.5,28.6,00.0,38.5,31.2,06.7,-000.3,0040.57,0009.64,0005.71
2021-12-14 23:52:00,,0817.0,5.00,0.00,29.5,28.6,00.0,38.4,31.2,06.7,-001.0,0041.70,0009.59,0005.74
2021-12-14 23:53:00,,0817.0,4.99,0.00,29.5,28.6,00.0,38.4,31.2,06.7,-000.9,0043.10,0009.58,0005.77
2021-12-14 23:54:00,,0817.0,5.02,0.00,29.5,28.6,00.0,38.4,31.2,06.7,-000.6,0041.55,0009.59,0005.80
2021-12-14 23:55:00,,0817.0,4.99,0.00,29.5,28.6,00.0,38.4,31.2,06.7,-000.2,0041.45,0009.48,0005.80
2021-12-14 23:56:00,,0817.0,5.01,0.00,29.5,28.6,00.0,38.4,31.2,06.7,0000.6,0040.55,0009.39,0005.80
2021-12-14 23:57:00,,0816.9,4.99,0.00,29.5,28.6,00.0,38.4,31.2,06.7,0000.8,0039.46,0009.30,0005.80
2021-12-14 23:58:00,,0816.9,4.99,0.00,29.5,28.6,00.0,38.4,31.2,06.7,0001.1,0037.92,0009.25,0005.81
2021-12-14 23:59:00,,0816.9,5.00,0.00,29.5,28.6,00.0,38.4,31.2,06.7,0001.0,0037.89,0009.32,0005.83
